STARLINK-1672 (46537 NORAD) Tracking and Keplerian Element Data

This shows tracking and keplerian element data for the satellite.

Feedback or suggestion? Click here.




ElementValue
Catalog46537
NameSTARLINK-1672
Epoch Orbit174
Epoch Day335.91670139
Epoch Year2020
RAAN177.2523
Inclination53.0023
Eccentricity0.0001939
Argument of Perigee81.1399
Mean Anonmoly182.9726
Mean Motion15.05587168
Decay Rate0.00010849
L11 46537U 20070F 20335.91670139 .00010849 00000-0 76244-3 0 9991
L22 46537 53.0023 177.2523 0001939 81.1399 182.9726 15.05587168 1743

Live tracking and technical data element details for STARLINK-1672 (NORAD 46537). STARLINK-1672 can be tracked NOW for your location showing map with azimuth and elevation plus other details from your city location.

Track the satellite on the map from your city or location and see movement details for azimuth, elevation, latitude, longitude, range, height, and movement on the map or in text.







IsCatalogInMostPopularTable: catalog: 46537, numindb: 14
Update: records affected: 1



GetName: 46537 STARLINK-1672

Hit Count: updated at: Tue, 01 Dec 2020 22:00:32 GMT